Regional Weather Roundup
Issued by NWS

Home | Current Version | Previous Version | Graphics & Text | Print | Product List | Glossary On
Versions: 1 2 3 4 5 6 7 8 9 10 11 12 13 14 15 16 17 18 19 20 21 22 23 24 25 26 27 28 29 30 31 32 33 34 35 36 37 38 39 40 41 42 43 44 45 46 47 48 49 50
000
ASUS43 KTOP 042008
RWRKS

WEATHER ROUNDUP FOR KANSAS
NATIONAL WEATHER SERVICE GOODLAND KS
200 PM CST WED MAR 04 2015

NOTE:  "FAIR" INDICATES FEW OR NO CLOUDS BELOW 12,000 FEET WITH NO
SIGNIFICANT WEATHER AND/OR OBSTRUCTIONS TO VISIBILITY.

KSZ001>006-013>018-027>032-041>047-042100-
NORTHWEST KANSAS

CITY           SKY/WX    TMP DP  RH WIND       PRES   REMARKS
GOODLAND       SUNNY     27   8  44 N14G21    30.20  WCI  16
HAYS           SUNNY     30   1  29 N15G21    30.27F WCI  19
HILL CITY      SUNNY     31   5  33 N12G22    30.27  WCI  22
RUSSELL        SUNNY     32   3  29 NW15G22   30.26  WCI  22
$$

KSZ061>065-074>080-084>089-042100-
SOUTHWEST KANSAS

CITY           SKY/WX    TMP DP  RH WIND       PRES   REMARKS
DODGE CITY     CLOUDY    28   9  44 N17G23    30.27  WCI  16
ELKHART          N/A     22  13  69 NE12        N/A  WCI  10
GARDEN CITY    CLOUDY    27  11  51 NE10G21   30.25  WCI  17
GREAT BEND     CLOUDY    30   9  40 N13       30.28F WCI  20
LIBERAL        CLOUDY    23  14  68 NE13      30.26F WCI  11
PRATT          PTSUNNY   27  12  54 N15       30.29F WCI  15
$$

KSZ066>073-081>083-090>101-042100-
SOUTHEAST KANSAS

CITY           SKY/WX    TMP DP  RH WIND       PRES   REMARKS
CHANUTE        PTSUNNY   27  10  49 N13G28    30.26F WCI  16
COFFEYVILLE    PTSUNNY   26  16  65 N20G26    30.26S WCI  12
HUTCHINSON     CLOUDY    31  11  43 N16G25    30.27  WCI  20
MEDICINE LODGE   N/A     26  12  55 N22G29    30.30  WCI  12
NEWTON         CLOUDY    27  10  50 N20       30.26F WCI  13
PARSONS        PTSUNNY   27  16  63 N10G23    30.28R WCI  17
WICHITA INTL   CLOUDY    28  11  48 N18G25    30.27  WCI  15
WICHITA JABRA  CLOUDY    27  12  53 N17       30.25  WCI  14
WICHITA MCCONL CLOUDY    27  11  51 N17       30.26F WCI  14
WINFIELD       CLOUDY    26  14  60 N17       30.28F WCI  13
$$

KSZ007>012-019>026-033>040-048>060-102>105-042100-
NORTHEAST KANSAS

CITY           SKY/WX    TMP DP  RH WIND       PRES   REMARKS
CONCORDIA      PTSUNNY   31   5  33 N14G23    30.29  WCI  21
EMPORIA        CLOUDY    27  10  49 N12G24    30.26  WCI  17
LAWRENCE       CLOUDY    28   4  35 N15G22    30.30  WCI  16
MANHATTAN      MOSUNNY   33   2  26 N10G22    30.30  WCI  25
OLATHE IND     CLOUDY    25   8  48 N13       30.27  WCI  14
OLATHE EXE     CLOUDY    24   5  44 N14       30.26  WCI  12
SALINA         MOSUNNY   34   0  23 NW13G23   30.31  WCI  25
TOPEKA BILLARD CLOUDY    29   5  36 N14       30.31  WCI  18
TOPEKA FORBES  CLOUDY    29   5  36 N13       30.28  WCI  19
$$


USA.gov is the U.S. government's official web portal to all federal, state and local government web resources and services.